Location: Huntsville
(34.7300°N, 86.5860°W)
Time: 23:37:40
(UTC-05:00)

N. Korean satellite - Pass Details

Date: 22 March 2019
Orbit: 455 x 510 km, 97.2° (Epoch: 17 June)

Event Time Altitude Azimuth Distance (km) Brightness Sun altitude
Rises 06:00:30 0° 32° (NNE) 2,528 10.8 -10.5°
Reaches altitude 10° 06:03:10 10° 55° (NE) 1,657 10.4 -9.9°
Maximum altitude 06:05:27 16° 95° (E) 1,329 10.1 -9.5°
Drops below altitude 10° 06:07:44 10° 135° (SE) 1,669 9.8 -9.0°
Sets 06:10:26 0° 157° (SSE) 2,557 10.5 -8.4°
